Voltar ao catálogo

SL-3 DEB

AtivoPO
NORAD 13720·DEBRIS·🇷🇺 Russia

Lançado Dec 14, 1982 de Plesetsk Cosmodrome

Loading…

Próximas Passagens (próximas 24 horas)

TLE

AtualizadoSource: Space-Track

Época: Sep 14, 2026, 06:11 UTC

1 13720U 82116C   26257.25816931  .00000135  00000-0  60722-4 0  9998
2 13720  81.2457 258.2301 0056362  62.3526 311.4447 14.16029929258999

Acompanhe SL-3 DEB em tempo real com AllMySat

Download on the App Store